Time,TemperatureF,DewpointF,PressureIn,WindDirection,WindDirectionDegrees,WindSpeedMPH,WindSpeedGustMPH,Humidity,HourlyPrecipIn,Conditions,Clouds,dailyrainin,SoftwareType,DateUTC
2013-01-18 00:01:00,51.3,42.7,30.40,NNW,337,0.0,0.0,72,0.00,,,0.19,WUHU21623XXSP,2013-01-18 05:01:00,
2013-01-18 00:02:00,51.1,42.5,30.40,NW,315,0.0,0.0,72,0.00,,,0.00,WUHU21623XXSP,2013-01-18 05:02:00,
2013-01-18 00:03:00,51.1,42.5,30.41,North,0,0.0,0.0,72,0.00,,,0.00,WUHU21623XXSP,2013-01-18 05:03:00,
2013-01-18 00:08:00,50.8,42.5,30.41,NW,315,0.0,0.0,73,0.00,,,0.00,WUHU21623XXSP,2013-01-18 05:08:00,
2013-01-18 00:13:00,50.8,42.5,30.41,NE,45,0.0,0.0,73,0.00,,,0.00,WUHU21623XXSP,2013-01-18 05:13:00,
2013-01-18 00:18:00,50.4,42.5,30.41,NNW,337,0.0,0.0,74,0.00,,,0.00,WUHU21623XXSP,2013-01-18 05:18:00,
2013-01-18 00:23:00,50.4,42.5,30.41,NW,315,0.0,0.0,74,0.00,,,0.00,WUHU21623XXSP,2013-01-18 05:23:00,
2013-01-18 00:28:00,50.4,42.5,30.41,NW,315,0.0,0.0,74,0.00,,,0.00,WUHU21623XXSP,2013-01-18 05:28:00,
2013-01-18 00:33:00,50.2,42.3,30.41,NW,315,0.0,0.0,74,0.00,,,0.00,WUHU21623XXSP,2013-01-18 05:33:00,
2013-01-18 00:38:00,50.2,42.3,30.40,WNW,292,0.0,0.0,74,0.00,,,0.00,WUHU21623XXSP,2013-01-18 05:38:00,
2013-01-18 00:43:00,50.2,42.3,30.40,NNW,337,0.0,0.0,74,0.00,,,0.00,WUHU21623XXSP,2013-01-18 05:43:00,
2013-01-18 00:48:00,49.9,42.4,30.40,West,270,0.0,0.0,75,0.00,,,0.00,WUHU21623XXSP,2013-01-18 05:48:00,
2013-01-18 00:53:00,49.9,42.4,30.41,North,0,0.0,0.0,75,0.00,,,0.00,WUHU21623XXSP,2013-01-18 05:53:00,
2013-01-18 00:58:00,49.9,42.4,30.41,NNW,337,0.0,0.0,75,0.00,,,0.00,WUHU21623XXSP,2013-01-18 05:58:00,
2013-01-18 01:03:00,49.7,42.5,30.41,NW,315,0.0,0.0,76,0.00,,,0.00,WUHU21623XXSP,2013-01-18 06:03:00,
2013-01-18 01:08:00,49.7,42.5,30.41,WNW,292,0.0,0.0,76,0.00,,,0.00,WUHU21623XXSP,2013-01-18 06:08:00,
2013-01-18 01:13:00,49.5,42.3,30.41,WNW,292,0.0,0.0,76,0.00,,,0.00,WUHU21623XXSP,2013-01-18 06:13:00,
2013-01-18 01:18:00,49.5,42.3,30.41,NE,45,0.0,0.0,76,0.00,,,0.00,WUHU21623XXSP,2013-01-18 06:18:00,
2013-01-18 01:23:00,49.5,42.3,30.42,NNW,337,0.0,0.0,76,0.00,,,0.00,WUHU21623XXSP,2013-01-18 06:23:00,
2013-01-18 01:28:00,49.5,42.3,30.41,NNW,337,0.0,0.0,76,0.00,,,0.00,WUHU21623XXSP,2013-01-18 06:28:00,
2013-01-18 01:34:00,49.3,42.1,30.42,NW,315,0.0,0.0,76,0.00,,,0.00,WUHU21623XXSP,2013-01-18 06:34:00,
2013-01-18 01:39:00,49.3,41.8,30.42,NNW,337,0.0,0.0,75,0.00,,,0.00,WUHU21623XXSP,2013-01-18 06:39:00,
2013-01-18 01:44:00,49.3,41.8,30.42,NNE,22,0.0,0.0,75,0.00,,,0.00,WUHU21623XXSP,2013-01-18 06:44:00,
2013-01-18 01:49:00,49.2,41.7,30.42,NNW,337,0.0,0.0,75,0.00,,,0.00,WUHU21623XXSP,2013-01-18 06:49:00,
2013-01-18 01:54:00,49.3,42.1,30.42,NNW,337,0.0,0.0,76,0.00,,,0.00,WUHU21623XXSP,2013-01-18 06:54:00,
2013-01-18 01:59:00,49.2,42.0,30.42,NNW,337,0.0,0.0,76,0.00,,,0.00,WUHU21623XXSP,2013-01-18 06:59:00,
2013-01-18 02:04:00,49.2,42.0,30.42,NNE,22,0.0,0.0,76,0.00,,,0.00,WUHU21623XXSP,2013-01-18 07:04:00,
2013-01-18 02:09:00,49.2,42.0,30.42,NNW,337,0.0,0.0,76,0.00,,,0.00,WUHU21623XXSP,2013-01-18 07:09:00,
2013-01-18 02:14:00,49.2,42.0,30.42,NNW,337,0.0,0.0,76,0.00,,,0.00,WUHU21623XXSP,2013-01-18 07:14:00,
2013-01-18 02:19:00,49.2,41.7,30.42,WNW,292,0.0,0.0,75,0.00,,,0.00,WUHU21623XXSP,2013-01-18 07:19:00,
2013-01-18 02:24:00,49.2,41.7,30.43,NNW,337,0.0,0.0,75,0.00,,,0.00,WUHU21623XXSP,2013-01-18 07:24:00,
2013-01-18 02:29:00,49.2,42.0,30.43,NE,45,0.0,0.0,76,0.00,,,0.00,WUHU21623XXSP,2013-01-18 07:29:00,
2013-01-18 02:34:00,48.8,41.6,30.43,NNE,22,0.0,0.0,76,0.00,,,0.00,WUHU21623XXSP,2013-01-18 07:34:00,
2013-01-18 02:39:00,48.6,41.4,30.44,NNW,337,0.0,0.0,76,0.00,,,0.00,WUHU21623XXSP,2013-01-18 07:39:00,
2013-01-18 02:44:00,48.6,41.4,30.44,NNE,22,0.0,0.0,76,0.00,,,0.00,WUHU21623XXSP,2013-01-18 07:44:00,
2013-01-18 02:49:00,48.4,41.2,30.44,NNE,22,0.0,0.0,76,0.00,,,0.00,WUHU21623XXSP,2013-01-18 07:49:00,
2013-01-18 02:54:00,48.4,40.9,30.44,NNW,337,0.0,0.0,75,0.00,,,0.00,WUHU21623XXSP,2013-01-18 07:54:00,
2013-01-18 02:59:00,48.1,40.6,30.44,North,0,0.0,0.0,75,0.00,,,0.00,WUHU21623XXSP,2013-01-18 07:59:00,
2013-01-18 03:04:00,48.1,40.6,30.44,North,0,0.0,0.0,75,0.00,,,0.00,WUHU21623XXSP,2013-01-18 08:04:00,
2013-01-18 03:09:00,47.9,40.4,30.43,North,0,0.0,0.0,75,0.00,,,0.00,WUHU21623XXSP,2013-01-18 08:09:00,
2013-01-18 03:14:00,47.7,40.2,30.44,North,0,0.0,0.0,75,0.00,,,0.00,WUHU21623XXSP,2013-01-18 08:14:00,
2013-01-18 03:19:00,47.7,40.2,30.44,NNE,22,0.0,0.0,75,0.00,,,0.00,WUHU21623XXSP,2013-01-18 08:19:00,
2013-01-18 03:24:00,47.5,40.0,30.44,NNW,337,0.0,0.0,75,0.00,,,0.00,WUHU21623XXSP,2013-01-18 08:24:00,
2013-01-18 03:29:00,47.5,40.0,30.44,NNW,337,0.0,0.0,75,0.00,,,0.00,WUHU21623XXSP,2013-01-18 08:29:00,
2013-01-18 03:34:00,47.2,39.4,30.44,NNW,337,0.0,0.0,74,0.00,,,0.00,WUHU21623XXSP,2013-01-18 08:34:00,
2013-01-18 03:39:00,47.2,39.7,30.45,North,0,0.0,0.0,75,0.00,,,0.00,WUHU21623XXSP,2013-01-18 08:39:00,
2013-01-18 03:44:00,46.8,39.4,30.45,SW,225,0.0,0.0,75,0.00,,,0.00,WUHU21623XXSP,2013-01-18 08:44:00,
2013-01-18 03:49:00,46.6,39.2,30.44,NNE,22,0.0,0.0,75,0.00,,,0.00,WUHU21623XXSP,2013-01-18 08:49:00,
2013-01-18 03:54:00,46.3,38.9,30.45,NNE,22,0.0,0.0,75,0.00,,,0.00,WUHU21623XXSP,2013-01-18 08:54:00,
2013-01-18 03:59:00,46.1,38.7,30.45,NNW,337,0.0,0.0,75,0.00,,,0.00,WUHU21623XXSP,2013-01-18 08:59:00,
2013-01-18 04:04:00,45.9,38.5,30.45,NNE,22,0.0,0.0,75,0.00,,,0.00,WUHU21623XXSP,2013-01-18 09:04:00,
2013-01-18 04:09:00,45.7,38.3,30.45,NE,45,0.0,0.0,75,0.00,,,0.00,WUHU21623XXSP,2013-01-18 09:09:00,
2013-01-18 04:14:00,45.6,38.5,30.45,NE,45,0.0,0.0,76,0.00,,,0.00,WUHU21623XXSP,2013-01-18 09:14:00,
2013-01-18 04:19:00,45.4,38.3,30.45,North,0,0.0,0.0,76,0.00,,,0.00,WUHU21623XXSP,2013-01-18 09:19:00,
2013-01-18 04:24:00,44.8,37.8,30.45,North,0,0.0,0.0,76,0.00,,,0.00,WUHU21623XXSP,2013-01-18 09:24:00,
2013-01-18 04:29:00,44.5,37.5,30.45,North,0,0.0,0.0,76,0.00,,,0.00,WUHU21623XXSP,2013-01-18 09:29:00,
2013-01-18 04:34:00,44.1,37.1,30.45,NNE,22,0.0,0.0,76,0.00,,,0.00,WUHU21623XXSP,2013-01-18 09:34:00,
2013-01-18 04:39:00,43.8,36.8,30.46,NE,45,0.0,0.0,76,0.00,,,0.00,WUHU21623XXSP,2013-01-18 09:39:00,
2013-01-18 04:44:00,43.2,36.2,30.46,NNE,22,0.0,0.0,76,0.00,,,0.00,WUHU21623XXSP,2013-01-18 09:44:00,
2013-01-18 04:49:00,43.2,36.2,30.46,NNE,22,0.0,0.0,76,0.00,,,0.00,WUHU21623XXSP,2013-01-18 09:49:00,
2013-01-18 04:54:00,42.7,35.7,30.46,NNE,22,0.0,0.0,76,0.00,,,0.00,WUHU21623XXSP,2013-01-18 09:54:00,
2013-01-18 04:59:00,42.5,35.5,30.46,NE,45,0.0,0.0,76,0.00,,,0.00,WUHU21623XXSP,2013-01-18 09:59:00,
2013-01-18 05:04:00,42.3,35.3,30.46,NNE,22,0.0,0.0,76,0.00,,,0.00,WUHU21623XXSP,2013-01-18 10:04:00,
2013-01-18 05:09:00,42.0,35.0,30.46,NE,45,0.0,0.0,76,0.00,,,0.00,WUHU21623XXSP,2013-01-18 10:09:00,
2013-01-18 05:14:00,41.8,34.8,30.47,NE,45,0.0,0.0,76,0.00,,,0.00,WUHU21623XXSP,2013-01-18 10:14:00,
2013-01-18 05:19:00,41.4,34.5,30.47,NNE,22,0.0,0.0,76,0.00,,,0.00,WUHU21623XXSP,2013-01-18 10:19:00,
2013-01-18 05:24:00,41.4,34.5,30.47,ENE,67,0.0,0.0,76,0.00,,,0.00,WUHU21623XXSP,2013-01-18 10:24:00,
2013-01-18 05:29:00,41.2,34.6,30.47,NE,45,0.0,0.0,77,0.00,,,0.00,WUHU21623XXSP,2013-01-18 10:29:00,
2013-01-18 05:34:00,41.1,34.5,30.47,North,0,0.0,0.0,77,0.00,,,0.00,WUHU21623XXSP,2013-01-18 10:34:00,
2013-01-18 05:40:00,40.9,34.3,30.48,North,0,0.0,0.0,77,0.00,,,0.00,WUHU21623XXSP,2013-01-18 10:40:00,
2013-01-18 05:44:00,40.9,34.3,30.48,NNE,22,0.0,0.0,77,0.00,,,0.00,WUHU21623XXSP,2013-01-18 10:44:00,
2013-01-18 05:49:00,40.7,34.1,30.49,North,0,0.0,0.0,77,0.00,,,0.00,WUHU21623XXSP,2013-01-18 10:49:00,
2013-01-18 05:54:00,40.5,33.9,30.49,NE,45,0.0,0.0,77,0.00,,,0.00,WUHU21623XXSP,2013-01-18 10:54:00,
2013-01-18 05:59:00,40.5,33.9,30.49,NNE,22,0.0,0.0,77,0.00,,,0.00,WUHU21623XXSP,2013-01-18 10:59:00,
2013-01-18 06:04:00,40.5,33.9,30.50,East,90,0.0,0.0,77,0.00,,,0.00,WUHU21623XXSP,2013-01-18 11:04:00,
2013-01-18 06:09:00,40.5,33.6,30.50,North,0,0.0,0.0,76,0.00,,,0.00,WUHU21623XXSP,2013-01-18 11:09:00,
2013-01-18 06:14:00,40.5,33.6,30.50,NNE,22,0.0,0.0,76,0.00,,,0.00,WUHU21623XXSP,2013-01-18 11:14:00,
2013-01-18 06:19:00,40.3,33.4,30.50,ENE,67,0.0,0.0,76,0.00,,,0.00,WUHU21623XXSP,2013-01-18 11:19:00,
2013-01-18 06:25:00,40.3,33.4,30.51,NNW,337,0.0,0.0,76,0.00,,,0.00,WUHU21623XXSP,2013-01-18 11:25:00,
2013-01-18 06:30:00,40.3,33.4,30.50,NNE,22,0.0,0.0,76,0.00,,,0.00,WUHU21623XXSP,2013-01-18 11:30:00,
2013-01-18 06:35:00,40.3,33.4,30.51,North,0,0.0,0.0,76,0.00,,,0.00,WUHU21623XXSP,2013-01-18 11:35:00,
2013-01-18 06:40:00,40.3,33.4,30.51,NNE,22,0.0,0.0,76,0.00,,,0.00,WUHU21623XXSP,2013-01-18 11:40:00,
2013-01-18 06:45:00,40.3,33.4,30.52,North,0,0.0,0.0,76,0.00,,,0.00,WUHU21623XXSP,2013-01-18 11:45:00,
2013-01-18 06:50:00,40.3,33.4,30.52,NNE,22,0.0,0.0,76,0.00,,,0.00,WUHU21623XXSP,2013-01-18 11:50:00,
2013-01-18 06:55:00,40.3,33.4,30.52,NNE,22,0.0,0.0,76,0.00,,,0.00,WUHU21623XXSP,2013-01-18 11:55:00,
2013-01-18 07:00:00,40.2,33.3,30.52,NNE,22,0.0,0.0,76,0.00,,,0.00,WUHU21623XXSP,2013-01-18 12:00:00,
2013-01-18 07:05:00,40.2,33.3,30.52,NNE,22,0.0,0.0,76,0.00,,,0.00,WUHU21623XXSP,2013-01-18 12:05:00,
2013-01-18 07:10:00,40.2,33.3,30.52,NNE,22,0.0,0.0,76,0.00,,,0.00,WUHU21623XXSP,2013-01-18 12:10:00,
2013-01-18 07:15:00,40.2,33.3,30.52,NNE,22,0.0,0.0,76,0.00,,,0.00,WUHU21623XXSP,2013-01-18 12:15:00,
2013-01-18 07:20:00,40.2,33.3,30.53,North,0,0.0,0.0,76,0.00,,,0.00,WUHU21623XXSP,2013-01-18 12:20:00,
2013-01-18 07:25:00,40.0,33.1,30.52,NNE,22,0.0,0.0,76,0.00,,,0.00,WUHU21623XXSP,2013-01-18 12:25:00,
2013-01-18 07:30:00,40.0,33.1,30.53,ENE,67,0.0,0.0,76,0.00,,,0.00,WUHU21623XXSP,2013-01-18 12:30:00,
2013-01-18 07:35:00,40.0,33.1,30.53,North,0,0.0,0.0,76,0.00,,,0.00,WUHU21623XXSP,2013-01-18 12:35:00,
2013-01-18 07:40:00,40.0,33.1,30.53,NNE,22,0.0,0.0,76,0.00,,,0.00,WUHU21623XXSP,2013-01-18 12:40:00,
2013-01-18 07:45:00,40.0,33.1,30.54,NNE,22,0.0,0.0,76,0.00,,,0.00,WUHU21623XXSP,2013-01-18 12:45:00,
2013-01-18 07:50:00,40.2,33.3,30.54,NE,45,0.0,0.0,76,0.00,,,0.00,WUHU21623XXSP,2013-01-18 12:50:00,
2013-01-18 07:55:00,40.2,33.3,30.55,NE,45,0.0,0.0,76,0.00,,,0.00,WUHU21623XXSP,2013-01-18 12:55:00,
2013-01-18 08:00:00,40.3,33.4,30.55,NNE,22,0.0,0.0,76,0.00,,,0.00,WUHU21623XXSP,2013-01-18 13:00:00,
2013-01-18 08:05:00,40.5,33.6,30.55,North,0,0.0,0.0,76,0.00,,,0.00,WUHU21623XXSP,2013-01-18 13:05:00,
2013-01-18 08:10:00,40.5,33.6,30.55,East,90,0.0,0.0,76,0.00,,,0.00,WUHU21623XXSP,2013-01-18 13:10:00,
2013-01-18 08:15:00,40.7,33.8,30.56,NNE,22,0.0,0.0,76,0.00,,,0.00,WUHU21623XXSP,2013-01-18 13:15:00,
2013-01-18 08:20:00,40.9,34.0,30.56,NNE,22,0.0,0.0,76,0.00,,,0.00,WUHU21623XXSP,2013-01-18 13:20:00,
2013-01-18 08:25:00,41.2,34.3,30.56,NW,315,0.0,0.0,76,0.00,,,0.00,WUHU21623XXSP,2013-01-18 13:25:00,
2013-01-18 08:30:00,41.2,34.3,30.56,NNE,22,0.0,0.0,76,0.00,,,0.00,WUHU21623XXSP,2013-01-18 13:30:00,
2013-01-18 08:35:00,41.4,34.5,30.56,NE,45,0.0,0.0,76,0.00,,,0.00,WUHU21623XXSP,2013-01-18 13:35:00,
2013-01-18 08:40:00,41.4,34.1,30.56,NE,45,0.0,0.0,75,0.00,,,0.00,WUHU21623XXSP,2013-01-18 13:40:00,
2013-01-18 08:45:00,41.8,34.5,30.56,NNE,22,0.0,0.0,75,0.00,,,0.00,WUHU21623XXSP,2013-01-18 13:45:00,
2013-01-18 08:50:00,42.0,34.7,30.56,NE,45,0.0,0.0,75,0.00,,,0.00,WUHU21623XXSP,2013-01-18 13:50:00,
2013-01-18 08:55:00,42.1,34.8,30.56,North,0,0.0,0.0,75,0.00,,,0.00,WUHU21623XXSP,2013-01-18 13:55:00,
2013-01-18 09:00:00,42.3,35.0,30.57,NE,45,0.0,0.0,75,0.00,,,0.00,WUHU21623XXSP,2013-01-18 14:00:00,
2013-01-18 09:05:00,42.7,35.7,30.56,NE,45,0.0,0.0,76,0.00,,,0.00,WUHU21623XXSP,2013-01-18 14:05:00,
2013-01-18 09:10:00,43.0,35.7,30.56,NE,45,0.0,0.0,75,0.00,,,0.00,WUHU21623XXSP,2013-01-18 14:10:00,
2013-01-18 09:15:00,43.2,35.9,30.56,NNE,22,0.0,0.0,75,0.00,,,0.00,WUHU21623XXSP,2013-01-18 14:15:00,
2013-01-18 09:20:00,43.6,35.9,30.56,ENE,67,0.0,0.0,74,0.00,,,0.00,WUHU21623XXSP,2013-01-18 14:20:00,
2013-01-18 09:25:00,43.9,36.2,30.55,North,0,0.0,0.0,74,0.00,,,0.00,WUHU21623XXSP,2013-01-18 14:25:00,
2013-01-18 09:30:00,44.1,36.4,30.56,North,0,0.0,0.0,74,0.00,,,0.00,WUHU21623XXSP,2013-01-18 14:30:00,
2013-01-18 09:35:00,44.3,36.6,30.56,NE,45,0.0,0.0,74,0.00,,,0.00,WUHU21623XXSP,2013-01-18 14:35:00,
2013-01-18 09:40:00,45.0,37.3,30.56,ENE,67,0.0,0.0,74,0.00,,,0.00,WUHU21623XXSP,2013-01-18 14:40:00,
2013-01-18 09:45:00,45.6,37.5,30.56,NNE,22,0.0,0.0,73,0.00,,,0.00,WUHU21623XXSP,2013-01-18 14:45:00,
2013-01-18 09:50:00,45.9,37.8,30.56,NNE,22,0.0,0.0,73,0.00,,,0.00,WUHU21623XXSP,2013-01-18 14:50:00,
2013-01-18 09:55:00,46.3,37.9,30.56,NE,45,0.0,0.0,72,0.00,,,0.00,WUHU21623XXSP,2013-01-18 14:55:00,
2013-01-18 10:00:00,47.2,38.4,30.56,NNE,22,0.0,0.0,71,0.00,,,0.00,WUHU21623XXSP,2013-01-18 15:00:00,
2013-01-18 10:05:00,47.5,38.7,30.57,ENE,67,0.0,0.0,71,0.00,,,0.00,WUHU21623XXSP,2013-01-18 15:05:00,
2013-01-18 10:10:00,48.1,39.2,30.57,NNE,22,0.0,0.0,71,0.00,,,0.00,WUHU21623XXSP,2013-01-18 15:10:00,
2013-01-18 10:16:00,49.0,39.7,30.57,NE,45,0.0,0.0,70,0.00,,,0.00,WUHU21623XXSP,2013-01-18 15:16:00,
2013-01-18 10:21:00,49.5,40.2,30.57,NNE,22,0.0,0.0,70,0.00,,,0.00,WUHU21623XXSP,2013-01-18 15:21:00,
2013-01-18 10:26:00,49.9,40.2,30.57,ENE,67,0.0,0.0,69,0.00,,,0.00,WUHU21623XXSP,2013-01-18 15:26:00,
2013-01-18 10:31:00,50.2,40.2,30.57,NE,45,0.0,0.0,68,0.00,,,0.00,WUHU21623XXSP,2013-01-18 15:31:00,
2013-01-18 10:36:00,50.8,40.7,30.56,NNE,22,0.0,0.0,68,0.00,,,0.00,WUHU21623XXSP,2013-01-18 15:36:00,
2013-01-18 10:41:00,50.8,40.3,30.56,NNE,22,0.0,0.0,67,0.00,,,0.00,WUHU21623XXSP,2013-01-18 15:41:00,
2013-01-18 10:46:00,51.0,40.5,30.56,NNE,22,0.0,0.0,67,0.00,,,0.00,WUHU21623XXSP,2013-01-18 15:46:00,
2013-01-18 10:51:00,51.3,40.8,30.56,North,0,0.0,0.0,67,0.00,,,0.00,WUHU21623XXSP,2013-01-18 15:51:00,
2013-01-18 10:56:00,51.5,41.0,30.56,ENE,67,0.0,0.0,67,0.00,,,0.00,WUHU21623XXSP,2013-01-18 15:56:00,
2013-01-18 11:01:00,51.9,41.4,30.56,ESE,112,0.0,0.0,67,0.00,,,0.00,WUHU21623XXSP,2013-01-18 16:01:00,
2013-01-18 11:06:00,51.9,41.0,30.56,East,90,0.0,0.0,66,0.00,,,0.00,WUHU21623XXSP,2013-01-18 16:06:00,
2013-01-18 11:11:00,51.7,40.8,30.56,NNE,22,0.0,0.0,66,0.00,,,0.00,WUHU21623XXSP,2013-01-18 16:11:00,
2013-01-18 11:16:00,52.0,41.1,30.55,NE,45,0.0,0.0,66,0.00,,,0.00,WUHU21623XXSP,2013-01-18 16:16:00,
2013-01-18 11:21:00,52.0,41.5,30.55,ENE,67,0.0,0.0,67,0.00,,,0.00,WUHU21623XXSP,2013-01-18 16:21:00,
2013-01-18 11:26:00,51.9,41.4,30.55,NNE,22,0.0,0.0,67,0.00,,,0.00,WUHU21623XXSP,2013-01-18 16:26:00,
2013-01-18 11:31:00,51.9,41.8,30.55,NNE,22,0.0,0.0,68,0.00,,,0.00,WUHU21623XXSP,2013-01-18 16:31:00,
2013-01-18 11:36:00,52.2,42.1,30.54,North,0,0.0,0.0,68,0.00,,,0.00,WUHU21623XXSP,2013-01-18 16:36:00,
2013-01-18 11:41:00,52.6,42.5,30.55,NNW,337,0.0,0.0,68,0.00,,,0.00,WUHU21623XXSP,2013-01-18 16:41:00,
2013-01-18 11:46:00,52.9,42.4,30.54,NNE,22,0.0,0.0,67,0.00,,,0.00,WUHU21623XXSP,2013-01-18 16:46:00,
2013-01-18 11:51:00,53.3,43.1,30.54,ENE,67,0.0,0.0,68,0.00,,,0.00,WUHU21623XXSP,2013-01-18 16:51:00,
2013-01-18 11:56:00,54.0,43.4,30.54,North,0,0.0,0.0,67,0.00,,,0.00,WUHU21623XXSP,2013-01-18 16:56:00,
2013-01-18 12:01:00,54.4,43.8,30.53,ENE,67,0.0,0.0,67,0.00,,,0.00,WUHU21623XXSP,2013-01-18 17:01:00,
2013-01-18 12:06:00,54.9,43.9,30.53,ENE,67,0.0,0.0,66,0.00,,,0.00,WUHU21623XXSP,2013-01-18 17:06:00,
2013-01-18 12:11:00,55.5,44.1,30.53,ENE,67,0.0,0.0,65,0.00,,,0.00,WUHU21623XXSP,2013-01-18 17:11:00,
2013-01-18 12:16:00,55.8,44.3,30.52,North,0,0.0,0.0,65,0.00,,,0.00,WUHU21623XXSP,2013-01-18 17:16:00,
2013-01-18 12:21:00,55.8,44.3,30.52,NNE,22,0.0,0.0,65,0.00,,,0.00,WUHU21623XXSP,2013-01-18 17:21:00,
2013-01-18 12:26:00,55.8,44.3,30.52,NNE,22,0.0,0.0,65,0.00,,,0.00,WUHU21623XXSP,2013-01-18 17:26:00,
2013-01-18 12:31:00,55.8,44.3,30.52,NE,45,0.0,0.0,65,0.00,,,0.00,WUHU21623XXSP,2013-01-18 17:31:00,
2013-01-18 12:36:00,55.8,44.3,30.51,ENE,67,0.0,0.0,65,0.00,,,0.00,WUHU21623XXSP,2013-01-18 17:36:00,
2013-01-18 12:41:00,56.4,44.9,30.51,North,0,0.0,0.0,65,0.00,,,0.00,WUHU21623XXSP,2013-01-18 17:41:00,
2013-01-18 12:46:00,56.5,45.0,30.51,ENE,67,0.0,0.0,65,0.00,,,0.00,WUHU21623XXSP,2013-01-18 17:46:00,
2013-01-18 12:51:00,56.9,45.4,30.50,North,0,0.0,0.0,65,0.00,,,0.00,WUHU21623XXSP,2013-01-18 17:51:00,
2013-01-18 12:56:00,57.4,45.9,30.50,ENE,67,0.0,0.0,65,0.00,,,0.00,WUHU21623XXSP,2013-01-18 17:56:00,
2013-01-18 13:01:00,58.0,46.4,30.50,North,0,0.0,0.0,65,0.00,,,0.00,WUHU21623XXSP,2013-01-18 18:01:00,
2013-01-18 13:06:00,58.3,46.3,30.49,ENE,67,0.0,0.0,64,0.00,,,0.00,WUHU21623XXSP,2013-01-18 18:06:00,
2013-01-18 13:11:00,59.1,47.1,30.50,NE,45,0.0,0.0,64,0.00,,,0.00,WUHU21623XXSP,2013-01-18 18:11:00,
2013-01-18 13:16:00,59.4,46.9,30.50,East,90,0.0,0.0,63,0.00,,,0.00,WUHU21623XXSP,2013-01-18 18:16:00,
2013-01-18 13:21:00,59.4,46.9,30.49,ESE,112,0.0,0.0,63,0.00,,,0.00,WUHU21623XXSP,2013-01-18 18:21:00,
2013-01-18 13:26:00,59.4,46.9,30.49,NNE,22,0.0,0.0,63,0.00,,,0.00,WUHU21623XXSP,2013-01-18 18:26:00,
2013-01-18 13:31:00,60.0,47.9,30.49,NNE,22,0.0,0.0,64,0.00,,,0.00,WUHU21623XXSP,2013-01-18 18:31:00,
2013-01-18 13:36:00,60.3,48.2,30.49,NNE,22,0.0,0.0,64,0.00,,,0.00,WUHU21623XXSP,2013-01-18 18:36:00,
2013-01-18 13:41:00,60.1,48.0,30.49,NE,45,0.0,0.0,64,0.00,,,0.00,WUHU21623XXSP,2013-01-18 18:41:00,
2013-01-18 13:46:00,60.0,47.9,30.49,ENE,67,0.0,0.0,64,0.00,,,0.00,WUHU21623XXSP,2013-01-18 18:46:00,
2013-01-18 13:51:00,60.0,47.9,30.49,NNE,22,0.0,0.0,64,0.00,,,0.00,WUHU21623XXSP,2013-01-18 18:51:00,
2013-01-18 13:56:00,59.8,47.7,30.49,ENE,67,0.0,0.0,64,0.00,,,0.00,WUHU21623XXSP,2013-01-18 18:56:00,
2013-01-18 14:01:00,59.8,48.2,30.49,North,0,0.0,0.0,65,0.00,,,0.00,WUHU21623XXSP,2013-01-18 19:01:00,
2013-01-18 14:07:00,59.8,48.2,30.48,NE,45,0.0,0.0,65,0.00,,,0.00,WUHU21623XXSP,2013-01-18 19:07:00,
2013-01-18 14:12:00,59.4,48.2,30.48,North,0,0.0,0.0,66,0.00,,,0.00,WUHU21623XXSP,2013-01-18 19:12:00,
2013-01-18 14:17:00,59.2,48.0,30.48,NNE,22,0.0,0.0,66,0.00,,,0.00,WUHU21623XXSP,2013-01-18 19:17:00,
2013-01-18 14:22:00,59.2,48.0,30.48,NE,45,0.0,0.0,66,0.00,,,0.00,WUHU21623XXSP,2013-01-18 19:22:00,
2013-01-18 14:27:00,58.9,48.1,30.48,NE,45,0.0,0.0,67,0.00,,,0.00,WUHU21623XXSP,2013-01-18 19:27:00,
2013-01-18 14:32:00,59.1,48.7,30.48,NE,45,0.0,0.0,68,0.00,,,0.00,WUHU21623XXSP,2013-01-18 19:32:00,
2013-01-18 14:37:00,59.4,49.0,30.48,ENE,67,0.0,0.0,68,0.00,,,0.00,WUHU21623XXSP,2013-01-18 19:37:00,
2013-01-18 14:42:00,59.4,48.6,30.48,NE,45,0.0,0.0,67,0.00,,,0.00,WUHU21623XXSP,2013-01-18 19:42:00,
2013-01-18 14:47:00,59.4,49.0,30.48,ENE,67,0.0,0.0,68,0.00,,,0.00,WUHU21623XXSP,2013-01-18 19:47:00,
2013-01-18 14:52:00,59.2,48.8,30.48,NE,45,0.0,0.0,68,0.00,,,0.00,WUHU21623XXSP,2013-01-18 19:52:00,
2013-01-18 14:57:00,58.9,48.9,30.49,NE,45,0.0,0.0,69,0.00,,,0.00,WUHU21623XXSP,2013-01-18 19:57:00,
2013-01-18 15:02:00,58.7,49.1,30.48,NNE,22,0.0,0.0,70,0.00,,,0.00,WUHU21623XXSP,2013-01-18 20:02:00,
2013-01-18 15:07:00,58.5,49.3,30.48,ENE,67,0.0,0.0,71,0.00,,,0.00,WUHU21623XXSP,2013-01-18 20:07:00,
2013-01-18 15:12:00,58.7,49.4,30.48,North,0,0.0,0.0,71,0.00,,,0.00,WUHU21623XXSP,2013-01-18 20:12:00,
2013-01-18 15:17:00,59.1,49.8,30.48,NE,45,0.0,0.0,71,0.00,,,0.00,WUHU21623XXSP,2013-01-18 20:17:00,
2013-01-18 15:22:00,59.2,49.9,30.48,SE,135,0.0,0.0,71,0.00,,,0.00,WUHU21623XXSP,2013-01-18 20:22:00,
2013-01-18 15:27:00,59.4,50.1,30.48,NNE,22,0.0,0.0,71,0.00,,,0.00,WUHU21623XXSP,2013-01-18 20:27:00,
2013-01-18 15:32:00,59.6,49.9,30.48,ENE,67,0.0,0.0,70,0.00,,,0.00,WUHU21623XXSP,2013-01-18 20:32:00,
2013-01-18 15:37:00,60.0,50.3,30.48,North,0,0.0,0.0,70,0.00,,,0.00,WUHU21623XXSP,2013-01-18 20:37:00,
2013-01-18 15:42:00,60.1,50.0,30.48,North,0,0.0,0.0,69,0.00,,,0.00,WUHU21623XXSP,2013-01-18 20:42:00,
2013-01-18 15:47:00,60.3,50.2,30.48,NNE,22,0.0,0.0,69,0.00,,,0.00,WUHU21623XXSP,2013-01-18 20:47:00,
2013-01-18 15:52:00,60.3,50.2,30.48,NNE,22,0.0,0.0,69,0.00,,,0.00,WUHU21623XXSP,2013-01-18 20:52:00,
2013-01-18 15:57:00,60.1,50.0,30.48,ENE,67,0.0,0.0,69,0.00,,,0.00,WUHU21623XXSP,2013-01-18 20:57:00,
2013-01-18 16:02:00,60.1,50.0,30.48,NE,45,0.0,0.0,69,0.00,,,0.00,WUHU21623XXSP,2013-01-18 21:02:00,
2013-01-18 16:07:00,60.1,50.0,30.48,NE,45,0.0,0.0,69,0.00,,,0.00,WUHU21623XXSP,2013-01-18 21:07:00,
2013-01-18 16:12:00,60.1,50.0,30.48,ENE,67,0.0,0.0,69,0.00,,,0.00,WUHU21623XXSP,2013-01-18 21:12:00,
2013-01-18 16:17:00,60.1,50.0,30.48,ESE,112,0.0,0.0,69,0.00,,,0.00,WUHU21623XXSP,2013-01-18 21:17:00,
2013-01-18 16:22:00,60.1,50.0,30.47,NNE,22,0.0,0.0,69,0.00,,,0.00,WUHU21623XXSP,2013-01-18 21:22:00,
2013-01-18 16:27:00,60.1,50.0,30.48,ESE,112,0.0,0.0,69,0.00,,,0.00,WUHU21623XXSP,2013-01-18 21:27:00,
2013-01-18 16:32:00,60.1,50.4,30.48,NE,45,0.0,0.0,70,0.00,,,0.00,WUHU21623XXSP,2013-01-18 21:32:00,
2013-01-18 16:37:00,60.1,50.4,30.48,ENE,67,0.0,0.0,70,0.00,,,0.00,WUHU21623XXSP,2013-01-18 21:37:00,
2013-01-18 16:42:00,60.1,50.4,30.48,ENE,67,0.0,0.0,70,0.00,,,0.00,WUHU21623XXSP,2013-01-18 21:42:00,
2013-01-18 16:47:00,60.1,50.8,30.48,NE,45,0.0,0.0,71,0.00,,,0.00,WUHU21623XXSP,2013-01-18 21:47:00,
2013-01-18 16:52:00,60.1,50.8,30.48,NNE,22,0.0,0.0,71,0.00,,,0.00,WUHU21623XXSP,2013-01-18 21:52:00,
2013-01-18 16:57:00,60.0,50.7,30.48,NE,45,0.0,0.0,71,0.00,,,0.00,WUHU21623XXSP,2013-01-18 21:57:00,
2013-01-18 17:02:00,60.1,51.2,30.49,ENE,67,0.0,0.0,72,0.00,,,0.00,WUHU21623XXSP,2013-01-18 22:02:00,
2013-01-18 17:07:00,60.1,51.2,30.49,ENE,67,0.0,0.0,72,0.00,,,0.00,WUHU21623XXSP,2013-01-18 22:07:00,
2013-01-18 17:12:00,60.0,51.1,30.49,NE,45,0.0,0.0,72,0.00,,,0.00,WUHU21623XXSP,2013-01-18 22:12:00,
2013-01-18 17:17:00,59.8,50.9,30.49,NE,45,0.0,0.0,72,0.00,,,0.00,WUHU21623XXSP,2013-01-18 22:17:00,
2013-01-18 17:22:00,60.0,51.1,30.49,ENE,67,0.0,0.0,72,0.00,,,0.00,WUHU21623XXSP,2013-01-18 22:22:00,
2013-01-18 17:27:00,59.8,50.9,30.49,NE,45,0.0,0.0,72,0.00,,,0.00,WUHU21623XXSP,2013-01-18 22:27:00,
2013-01-18 17:32:00,59.8,50.9,30.49,ENE,67,0.0,0.0,72,0.00,,,0.00,WUHU21623XXSP,2013-01-18 22:32:00,
2013-01-18 17:37:00,59.8,50.9,30.50,NNE,22,0.0,0.0,72,0.00,,,0.00,WUHU21623XXSP,2013-01-18 22:37:00,
2013-01-18 17:42:00,59.4,50.5,30.50,North,0,0.0,0.0,72,0.00,,,0.00,WUHU21623XXSP,2013-01-18 22:42:00,
2013-01-18 17:47:00,59.4,50.5,30.50,ENE,67,0.0,0.0,72,0.00,,,0.00,WUHU21623XXSP,2013-01-18 22:47:00,
2013-01-18 17:52:00,59.4,50.9,30.50,NE,45,0.0,0.0,73,0.00,,,0.00,WUHU21623XXSP,2013-01-18 22:52:00,
2013-01-18 17:57:00,59.4,50.9,30.50,ENE,67,0.0,0.0,73,0.00,,,0.00,WUHU21623XXSP,2013-01-18 22:57:00,
2013-01-18 18:02:00,59.2,51.0,30.50,NE,45,0.0,0.0,74,0.00,,,0.00,WUHU21623XXSP,2013-01-18 23:02:00,
2013-01-18 18:07:00,59.2,51.0,30.50,NE,45,0.0,0.0,74,0.00,,,0.00,WUHU21623XXSP,2013-01-18 23:07:00,
2013-01-18 18:12:00,59.2,51.0,30.50,NNE,22,0.0,0.0,74,0.00,,,0.00,WUHU21623XXSP,2013-01-18 23:12:00,
2013-01-18 18:17:00,59.2,51.0,30.50,North,0,0.0,0.0,74,0.00,,,0.00,WUHU21623XXSP,2013-01-18 23:17:00,
2013-01-18 18:22:00,59.2,51.0,30.50,NNE,22,0.0,0.0,74,0.00,,,0.00,WUHU21623XXSP,2013-01-18 23:22:00,
2013-01-18 18:27:00,59.2,51.0,30.51,NE,45,0.0,0.0,74,0.00,,,0.00,WUHU21623XXSP,2013-01-18 23:27:00,
2013-01-18 18:32:00,59.2,51.0,30.51,NE,45,0.0,0.0,74,0.00,,,0.00,WUHU21623XXSP,2013-01-18 23:32:00,
2013-01-18 18:38:00,59.1,50.9,30.51,NE,45,0.0,0.0,74,0.00,,,0.00,WUHU21623XXSP,2013-01-18 23:38:00,
2013-01-18 18:43:00,59.1,50.9,30.51,NNW,337,14.1,14.1,74,0.00,,,0.00,WUHU21623XXSP,2013-01-18 23:43:00,
2013-01-18 18:48:00,58.9,50.7,30.51,North,0,0.0,14.1,74,0.00,,,0.00,WUHU21623XXSP,2013-01-18 23:48:00,
2013-01-18 18:53:00,58.9,50.7,30.51,NNE,22,0.0,0.0,74,0.00,,,0.00,WUHU21623XXSP,2013-01-18 23:53:00,
2013-01-18 18:58:00,58.9,50.7,30.52,NE,45,0.0,0.0,74,0.00,,,0.00,WUHU21623XXSP,2013-01-18 23:58:00,
2013-01-18 19:03:00,59.1,50.6,30.52,NNE,22,0.0,0.0,73,0.00,,,0.00,WUHU21623XXSP,2013-01-19 00:03:00,
2013-01-18 19:08:00,59.1,50.6,30.52,NNE,22,0.0,0.0,73,0.00,,,0.00,WUHU21623XXSP,2013-01-19 00:08:00,
2013-01-18 19:13:00,58.9,50.4,30.52,ENE,67,0.0,0.0,73,0.00,,,0.00,WUHU21623XXSP,2013-01-19 00:13:00,
2013-01-18 19:18:00,58.9,50.0,30.52,NE,45,0.0,0.0,72,0.00,,,0.00,WUHU21623XXSP,2013-01-19 00:18:00,
2013-01-18 19:23:00,58.9,50.0,30.52,NE,45,0.0,0.0,72,0.00,,,0.00,WUHU21623XXSP,2013-01-19 00:23:00,
2013-01-18 19:28:00,58.9,50.0,30.52,NE,45,0.0,0.0,72,0.00,,,0.00,WUHU21623XXSP,2013-01-19 00:28:00,
2013-01-18 19:33:00,58.9,50.0,30.52,NE,45,0.0,0.0,72,0.00,,,0.00,WUHU21623XXSP,2013-01-19 00:33:00,
2013-01-18 19:38:00,58.7,49.8,30.53,ENE,67,0.0,0.0,72,0.00,,,0.00,WUHU21623XXSP,2013-01-19 00:38:00,
2013-01-18 19:43:00,58.7,49.8,30.53,NE,45,0.0,0.0,72,0.00,,,0.00,WUHU21623XXSP,2013-01-19 00:43:00,
2013-01-18 19:48:00,58.5,49.3,30.53,NNE,22,0.0,0.0,71,0.00,,,0.00,WUHU21623XXSP,2013-01-19 00:48:00,
2013-01-18 19:53:00,58.5,49.3,30.53,ENE,67,0.0,0.0,71,0.00,,,0.00,WUHU21623XXSP,2013-01-19 00:53:00,
2013-01-18 19:58:00,58.3,49.4,30.53,NNE,22,0.0,0.0,72,0.00,,,0.00,WUHU21623XXSP,2013-01-19 00:58:00,
2013-01-18 20:03:00,58.2,49.3,30.53,NNE,22,0.0,0.0,72,0.00,,,0.00,WUHU21623XXSP,2013-01-19 01:03:00,
2013-01-18 20:08:00,58.2,49.3,30.53,NNE,22,0.0,0.0,72,0.00,,,0.00,WUHU21623XXSP,2013-01-19 01:08:00,
2013-01-18 20:13:00,58.0,49.1,30.53,ENE,67,0.0,0.0,72,0.00,,,0.00,WUHU21623XXSP,2013-01-19 01:13:00,
2013-01-18 20:18:00,58.0,49.1,30.54,NE,45,0.0,0.0,72,0.00,,,0.00,WUHU21623XXSP,2013-01-19 01:18:00,
2013-01-18 20:23:00,57.6,48.8,30.54,NNW,337,0.0,0.0,72,0.00,,,0.00,WUHU21623XXSP,2013-01-19 01:23:00,
2013-01-18 20:28:00,57.6,48.8,30.54,ENE,67,0.0,0.0,72,0.00,,,0.00,WUHU21623XXSP,2013-01-19 01:28:00,
2013-01-18 20:33:00,57.6,48.8,30.54,NE,45,0.0,0.0,72,0.00,,,0.00,WUHU21623XXSP,2013-01-19 01:33:00,
2013-01-18 20:38:00,57.6,48.8,30.54,NNE,22,0.0,0.0,72,0.00,,,0.00,WUHU21623XXSP,2013-01-19 01:38:00,
2013-01-18 20:43:00,57.4,48.6,30.54,East,90,0.0,0.0,72,0.00,,,0.00,WUHU21623XXSP,2013-01-19 01:43:00,
2013-01-18 20:48:00,57.4,48.9,30.54,NNE,22,0.0,0.0,73,0.00,,,0.00,WUHU21623XXSP,2013-01-19 01:48:00,
2013-01-18 20:53:00,57.4,48.9,30.54,NE,45,0.0,0.0,73,0.00,,,0.00,WUHU21623XXSP,2013-01-19 01:53:00,
2013-01-18 20:58:00,57.3,48.8,30.54,NNE,22,0.0,0.0,73,0.00,,,0.00,WUHU21623XXSP,2013-01-19 01:58:00,
2013-01-18 21:03:00,57.1,48.6,30.54,NNE,22,0.0,0.0,73,0.00,,,0.00,WUHU21623XXSP,2013-01-19 02:03:00,
2013-01-18 21:08:00,57.1,48.6,30.54,NE,45,0.0,0.0,73,0.00,,,0.00,WUHU21623XXSP,2013-01-19 02:08:00,
2013-01-18 21:13:00,56.9,48.1,30.54,North,0,0.0,0.0,72,0.00,,,0.00,WUHU21623XXSP,2013-01-19 02:13:00,
2013-01-18 21:18:00,56.7,48.2,30.54,NNE,22,0.0,0.0,73,0.00,,,0.00,WUHU21623XXSP,2013-01-19 02:18:00,
2013-01-18 21:23:00,56.7,48.2,30.54,NE,45,0.0,0.0,73,0.00,,,0.00,WUHU21623XXSP,2013-01-19 02:23:00,
2013-01-18 21:28:00,56.5,47.7,30.54,NNW,337,0.0,0.0,72,0.00,,,0.00,WUHU21623XXSP,2013-01-19 02:28:00,
2013-01-18 21:33:00,56.4,48.0,30.55,East,90,0.0,0.0,73,0.00,,,0.00,WUHU21623XXSP,2013-01-19 02:33:00,
2013-01-18 21:38:00,56.4,48.0,30.54,NE,45,0.0,0.0,73,0.00,,,0.00,WUHU21623XXSP,2013-01-19 02:38:00,
2013-01-18 21:43:00,56.2,47.8,30.54,NE,45,0.0,0.0,73,0.00,,,0.00,WUHU21623XXSP,2013-01-19 02:43:00,
2013-01-18 21:48:00,56.2,47.8,30.54,NE,45,0.0,0.0,73,0.00,,,0.00,WUHU21623XXSP,2013-01-19 02:48:00,
2013-01-18 21:53:00,55.8,47.4,30.54,East,90,0.0,0.0,73,0.00,,,0.00,WUHU21623XXSP,2013-01-19 02:53:00,
2013-01-18 21:58:00,55.8,47.4,30.54,NE,45,0.0,0.0,73,0.00,,,0.00,WUHU21623XXSP,2013-01-19 02:58:00,
2013-01-18 22:03:00,55.8,47.4,30.54,North,0,0.0,0.0,73,0.00,,,0.00,WUHU21623XXSP,2013-01-19 03:03:00,
2013-01-18 22:08:00,55.8,47.4,30.54,East,90,0.0,0.0,73,0.00,,,0.00,WUHU21623XXSP,2013-01-19 03:08:00,
2013-01-18 22:13:00,55.8,47.4,30.54,NE,45,0.0,0.0,73,0.00,,,0.00,WUHU21623XXSP,2013-01-19 03:13:00,
2013-01-18 22:18:00,55.8,47.4,30.54,NNE,22,0.0,0.0,73,0.00,,,0.00,WUHU21623XXSP,2013-01-19 03:18:00,
2013-01-18 22:23:00,55.6,47.2,30.54,North,0,0.0,0.0,73,0.00,,,0.00,WUHU21623XXSP,2013-01-19 03:23:00,
2013-01-18 22:28:00,55.6,47.2,30.54,North,0,0.0,0.0,73,0.00,,,0.00,WUHU21623XXSP,2013-01-19 03:28:00,
2013-01-18 22:34:00,55.3,46.9,30.54,NNE,22,0.0,0.0,73,0.00,,,0.00,WUHU21623XXSP,2013-01-19 03:34:00,
2013-01-18 22:38:00,55.1,46.7,30.54,NE,45,0.0,0.0,73,0.00,,,0.00,WUHU21623XXSP,2013-01-19 03:38:00,
2013-01-18 22:44:00,54.9,46.5,30.54,NW,315,0.0,0.0,73,0.00,,,0.00,WUHU21623XXSP,2013-01-19 03:44:00,
2013-01-18 22:48:00,54.9,46.5,30.54,NNE,22,0.0,0.0,73,0.00,,,0.00,WUHU21623XXSP,2013-01-19 03:48:00,
2013-01-18 22:53:00,54.7,46.3,30.54,NE,45,0.0,0.0,73,0.00,,,0.00,WUHU21623XXSP,2013-01-19 03:53:00,
2013-01-18 22:59:00,54.7,46.7,30.54,NNE,22,0.0,0.0,74,0.00,,,0.00,WUHU21623XXSP,2013-01-19 03:59:00,
2013-01-18 23:04:00,54.6,46.6,30.54,North,0,0.0,0.0,74,0.00,,,0.00,WUHU21623XXSP,2013-01-19 04:04:00,
2013-01-18 23:09:00,54.4,46.4,30.54,NE,45,0.0,0.0,74,0.00,,,0.00,WUHU21623XXSP,2013-01-19 04:09:00,
2013-01-18 23:14:00,54.4,46.4,30.53,NE,45,0.0,0.0,74,0.00,,,0.00,WUHU21623XXSP,2013-01-19 04:14:00,
2013-01-18 23:19:00,54.0,45.6,30.53,North,0,0.0,0.0,73,0.00,,,0.00,WUHU21623XXSP,2013-01-19 04:19:00,
2013-01-18 23:24:00,54.0,45.6,30.53,North,0,0.0,0.0,73,0.00,,,0.00,WUHU21623XXSP,2013-01-19 04:24:00,
2013-01-18 23:29:00,54.0,45.6,30.53,NNE,22,0.0,0.0,73,0.00,,,0.00,WUHU21623XXSP,2013-01-19 04:29:00,
2013-01-18 23:34:00,53.8,45.4,30.53,North,0,0.0,0.0,73,0.00,,,0.00,WUHU21623XXSP,2013-01-19 04:34:00,
2013-01-18 23:39:00,53.8,45.4,30.53,West,270,0.0,0.0,73,0.00,,,0.00,WUHU21623XXSP,2013-01-19 04:39:00,
2013-01-18 23:44:00,53.8,45.4,30.53,ENE,67,0.0,0.0,73,0.00,,,0.00,WUHU21623XXSP,2013-01-19 04:44:00,
2013-01-18 23:49:00,53.8,45.4,30.53,NE,45,0.0,0.0,73,0.00,,,0.00,WUHU21623XXSP,2013-01-19 04:49:00,
2013-01-18 23:54:00,53.8,45.4,30.53,North,0,0.0,0.0,73,0.00,,,0.00,WUHU21623XXSP,2013-01-19 04:54:00,
2013-01-18 23:59:00,53.5,45.2,30.53,NNE,22,0.0,0.0,73,0.00,,,0.00,WUHU21623XXSP,2013-01-19 04:59:00,